Weather History for Detroit Metro, MI

Change the Weather History Date:

Sunday, April 7, 2013

  Actual Average Record
Temperature  
Mean Temperature 51 °F 46 °F  
Max Temperature 60 °F 56 °F 83 °F (1991)
Min Temperature 42 °F 36 °F 10 °F (1982)
Degree Days  
Heating Degree Days 14 19  
Month to date heating degree days 176 141  
Since 1 July heating degree days 5394 5556  
Cooling Degree Days 0 0  
Month to date cooling degree days 0 0  
Year to date cooling degree days 0 0  
Moisture  
Dew Point 35 °F    
Average Humidity 49    
Maximum Humidity 62    
Minimum Humidity 35    
Precipitation  
Precipitation T in 0.10 in 0.92 in (2010)
Month to date precipitation T 0.64  
Year to date precipitation 7.02 6.90  
Snow  
Snow 0.00 in 0.10 in 6.00 in (1894)
Month to date snowfall T 0.8  
Since 1 July snowfall 47.6 41.6  
Snow Depth 0.00 in    
Sea Level Pressure  
Sea Level Pressure 29.84 in    
Wind  
Wind Speed 16 mph (WSW)    
Max Wind Speed 33 mph    
Max Gust Speed 40 mph    
Visibility 10 miles    
Events      
T = Trace of Precipitation, MM = Missing Value Source: NWS Daily Summary

Daily Weather History Graph

Daily Weather History Graph

Search for Another Location

Airport:

Trip Planner

Search our weather history database for the weather conditions in past years. The results will help you decide how hot, cold, wet, or windy it might be!

Date:

Astronomy

Apr. 07, 2013 Rise Set
Actual Time 7:05 AM EDT 8:06 PM EDT
Civil Twilight 6:36 AM EDT 8:34 PM EDT
Nautical Twilight 6:02 AM EDT 9:08 PM EDT
Astronomical Twilight 5:27 AM EDT 9:44 PM EDT
Moon 5:25 AM EDT (4/7) 5:34 PM EDT (4/7)
Length of Visible Light 13h 58m
Length of Day
13h 00m
Waning Crescent, 8% of the Moon is Illuminated
Apr 7
Waning Crescent
Apr 10
New
Apr 18
First Quarter
Apr 25
Full
May 2
Last Quarter

Hourly Weather History & Observations

Time (EDT) Temp. Windchill Dew Point Humidity Pressure Visibility Wind Dir Wind Speed Gust Speed Precip Events Conditions
12:53 AM 52.0 °F - 24.1 °F 34% 29.79 in 10.0 mi SSE 16.1 mph - N/A   Overcast
1:53 AM 54.0 °F - 26.1 °F 34% 29.75 in 10.0 mi SSE 16.1 mph - N/A   Overcast
2:53 AM 55.9 °F - 30.0 °F 37% 29.70 in 10.0 mi SSE 15.0 mph 25.3 mph N/A   Mostly Cloudy
3:53 AM 57.0 °F - 33.1 °F 40% 29.67 in 10.0 mi South 18.4 mph 28.8 mph 0.00 in   Overcast
4:53 AM 60.1 °F - 36.0 °F 41% 29.66 in 10.0 mi SSW 28.8 mph 39.1 mph N/A   Mostly Cloudy
5:53 AM 57.0 °F - 39.9 °F 53% 29.65 in 10.0 mi South 20.7 mph 27.6 mph N/A   Mostly Cloudy
6:53 AM 57.9 °F - 39.0 °F 49% 29.66 in 10.0 mi SSW 25.3 mph 32.2 mph N/A   Mostly Cloudy
7:53 AM 57.9 °F - 41.0 °F 53% 29.68 in 10.0 mi SSW 24.2 mph 31.1 mph N/A   Overcast
8:53 AM 57.9 °F - 44.1 °F 60% 29.72 in 10.0 mi SW 19.6 mph 27.6 mph N/A   Overcast
9:53 AM 55.9 °F - 42.1 °F 60% 29.74 in 10.0 mi WSW 23.0 mph 32.2 mph N/A   Mostly Cloudy
10:53 AM 55.9 °F - 41.0 °F 57% 29.78 in 10.0 mi West 19.6 mph 28.8 mph N/A   Mostly Cloudy
11:53 AM 54.0 °F - 39.0 °F 57% 29.82 in 10.0 mi WSW 21.9 mph 34.5 mph N/A   Overcast
12:53 PM 54.0 °F - 37.0 °F 53% 29.84 in 10.0 mi WSW 24.2 mph 34.5 mph N/A   Overcast
1:53 PM 55.0 °F - 37.0 °F 51% 29.87 in 10.0 mi WSW 16.1 mph 25.3 mph N/A   Mostly Cloudy
2:53 PM 55.0 °F - 36.0 °F 49% 29.91 in 10.0 mi West 17.3 mph 24.2 mph N/A   Mostly Cloudy
3:53 PM 55.0 °F - 35.1 °F 47% 29.93 in 10.0 mi West 17.3 mph 24.2 mph N/A   Mostly Cloudy
4:53 PM 55.9 °F - 34.0 °F 44% 29.94 in 10.0 mi West 18.4 mph 26.5 mph N/A   Mostly Cloudy
5:53 PM 55.9 °F - 33.1 °F 42% 29.96 in 10.0 mi WNW 9.2 mph 19.6 mph N/A   Scattered Clouds
6:53 PM 54.0 °F - 32.0 °F 43% 29.97 in 10.0 mi WNW 9.2 mph - N/A   Scattered Clouds
7:53 PM 51.1 °F - 32.0 °F 48% 29.99 in 10.0 mi WNW 5.8 mph - N/A   Mostly Cloudy
8:53 PM 48.0 °F - 32.0 °F 54% 30.01 in 10.0 mi North 5.8 mph - N/A   Mostly Cloudy
9:53 PM 46.0 °F 42.5 °F 32.0 °F 58% 30.03 in 10.0 mi NNE 6.9 mph - N/A   Scattered Clouds
10:53 PM 44.1 °F 41.5 °F 32.0 °F 63% 30.03 in 10.0 mi North 4.6 mph - N/A   Mostly Cloudy
11:53 PM 44.1 °F 41.5 °F 30.9 °F 60% 30.05 in 10.0 mi NNE 4.6 mph - N/A   Mostly Cloudy